📊 Raw Sensor Data
Showing records 46926 to 46950 of 85,079 total
| ID | Distance (ft) | Battery V | Battery A | Int Temp (°F) | Int Humid (%) | Ext Temp (°F) | Solar V | RSSI | SNR | Time Stamp |
|---|---|---|---|---|---|---|---|---|---|---|
| 38166 | -- | 4.06 | 9 | 72 | 39 | 67 | 5.10 | -84 | 8 | 04/18/2025 12:45 PM |
| 38165 | -- | 3.91 | 0 | 70 | 40 | 66 | 5.10 | -85 | 8 | 04/18/2025 12:30 PM |
| 38164 | -- | 3.91 | 0 | 70 | 39 | 64 | 5.10 | -82 | 8 | 04/18/2025 12:15 PM |
| 38163 | -- | 3.92 | 0 | 69 | 39 | 65 | 5.10 | -83 | 8 | 04/18/2025 12:00 PM |
| 38162 | -- | 4.05 | 9 | 68 | 39 | 64 | 5.10 | -84 | 9 | 04/18/2025 11:45 AM |
| 38161 | -- | 3.91 | 8 | 67 | 39 | 62 | 5.10 | -90 | 7 | 04/18/2025 11:30 AM |
| 38160 | -- | 4.07 | 9 | 66 | 40 | 62 | 5.10 | -85 | 8 | 04/18/2025 11:15 AM |
| 38159 | -- | 3.91 | 0 | 65 | 39 | 63 | 5.10 | -88 | 8 | 04/18/2025 11:00 AM |
| 38158 | -- | 3.91 | 0 | 63 | 40 | 60 | 5.10 | -86 | 8 | 04/18/2025 10:45 AM |
| 38157 | -- | 3.91 | 10 | 63 | 39 | 57 | 5.10 | -85 | 7 | 04/18/2025 10:30 AM |
| 38156 | -- | 4.03 | 0 | 63 | 38 | 58 | 5.10 | -87 | 8 | 04/18/2025 10:15 AM |
| 38155 | -- | 3.91 | 5 | 62 | 38 | 60 | 5.10 | -85 | 8 | 04/18/2025 10:00 AM |
| 38154 | -- | 3.91 | 10 | 59 | 39 | 55 | 5.10 | -86 | 7 | 04/18/2025 09:45 AM |
| 38153 | -- | 3.91 | 8 | 57 | 39 | 55 | 5.10 | -86 | 8 | 04/18/2025 09:30 AM |
| 38152 | -- | 3.91 | 5 | 56 | 39 | 54 | 5.10 | -86 | 7 | 04/18/2025 09:15 AM |
| 38151 | -- | 3.91 | 9 | 55 | 39 | 56 | 5.10 | -84 | 8 | 04/18/2025 09:01 AM |
| 38150 | -- | 3.91 | 0 | 53 | 39 | 54 | 5.10 | -85 | 9 | 04/18/2025 08:45 AM |
| 38149 | -- | 3.91 | 10 | 52 | 39 | 52 | 5.10 | -86 | 7 | 04/18/2025 08:30 AM |
| 38148 | -- | 3.91 | 10 | 50 | 40 | 50 | 5.10 | -86 | 8 | 04/18/2025 08:15 AM |
| 38147 | -- | 4.01 | 10 | 50 | 40 | 53 | 5.10 | -96 | 5 | 04/18/2025 08:00 AM |
| 38146 | -- | 3.93 | 22 | 49 | 39 | 49 | 4.50 | -91 | 6 | 04/18/2025 07:45 AM |
| 38145 | -- | 3.93 | 25 | 48 | 39 | 50 | 4.50 | -87 | 7 | 04/18/2025 07:30 AM |
| 38144 | -- | 3.92 | 0 | 47 | 39 | 50 | 4.50 | -90 | 8 | 04/18/2025 07:15 AM |
| 38143 | -- | 3.91 | 0 | 45 | 40 | 48 | 4.50 | -91 | 5 | 04/18/2025 07:00 AM |
| 38142 | -- | 3.84 | 0 | 44 | 40 | 46 | 4.50 | -100 | 6 | 04/18/2025 06:45 AM |